Weather in Tazovsky

Russia / Yamalo-Nenets Autonomous Okrug     67°28′27″N   78°42′51″E
temp.,
°C
wind,
m/s
gust,
m/s
humid.,
%
clouds,
%
prec.,
mm/h
press.,
hPa
HPBL,
m
9 march, tue
tue923:00−25n4697100 0.3 999188
02:00−26nnw5796100 0.1 998235
05:00−27nw5896100 0.2 999262
08:00−28nw5796100 0.1 1000279
11:00−28wnw5795100 0.2 1001316
14:00−28wnw5794100 0.0 1004390
17:00−29w4795100 0.1 1005273
20:00−31wsw469796 0.0 1006145
10 march, wed
wed1023:00−31wsw469795 0.1 1007156
02:00−31wsw359792 0.1 1007101
05:00−31sw349791 0.1 100865
08:00−30sw349796 0.0 1009120
11:00−28wsw349694 0.1 1010184
14:00−28sw339672 0.0 101164
17:00−31wsw339961 0.0 101119
20:00−33wsw3310036 0.0 101219
11 march, thu
thu1123:00−34wsw339930 0.0 101219
02:00−35wsw3310024 0.0 101219
05:00−35wsw2310025 0.0 101219
08:00−35wsw239825 0.0 101219
11:00−33wsw239619 0.0 1011102
14:00−32wsw23950 0.0 101169
17:00−34sw33960 0.0 101019
20:00−35sw34970 0.0 100921
12 march, fri
fri1223:00−35ssw45980 0.0 100848
02:00−35ssw579825 0.0 100687
05:00−34ssw6109630 0.0 1002163
08:00−32ssw8159139 0.0 1000276
11:00−28ssw10178666 0.0 996413
14:00−24ssw101795100 0.3 993683
17:00−21sw91596100 0.9 990719
20:00−18sw81493100 0.4 988520
13 march, sat
sat1323:00−17wnw61095100 0.6 989320
02:00−23nw699799 0.1 991174
05:00−26wnw589499 0.1 994185
08:00−26w4694100 0.0 996160
11:00−24wsw4693100 0.0 997260
14:00−22ssw5791100 0.0 996250
17:00−18ssw71195100 0.3 993396
20:00−13sw61294100 0.2 991346